Location: Part?b Pul
(35.7306°N, 74.6262°E)
Time: 15:02:41
(UTC+00:00)

Daily predictions for brighter satellites

Satellite Brightness Start Highest point End
(mag) Time Altitude Azimuth Time Altitude Azimuth Time Altitude Azimuth
NOSS 2-3 (E) 3.6 12:14:01 10° SSW 12:18:12 67° ESE 12:22:53 10° NE
Meteor 2-3 Rocket 4.3 12:13:01 10° NNW 12:18:45 67° W 12:24:24 10° S
Cosmos 1151 Rocket 4.3 12:16:15 10° SE 12:19:30 21° E 12:22:46 10° NE
Cosmos 923 Rocket 4.0 12:17:17 10° S 12:22:25 63° ESE 12:27:35 10° NNE
Sich 1 3.4 12:19:31 10° N 12:23:41 42° E 12:27:51 10° SSE
APEX 4.0 12:21:32 10° S 12:24:51 27° ESE 12:27:40 10° NE
NOSS 3-1 (C) 4.3 12:19:51 10° SW 12:25:01 44° NW 12:30:52 10° NNE
AQUARIUS 4.2 12:21:31 10° SSE 12:25:56 59° ENE 12:30:22 10° N
NOSS 3-1 (A) 3.5 12:20:46 10° SW 12:26:07 71° WNW 12:32:13 10° NNE
YAOGAN 6 4.2 12:24:57 10° ESE 12:26:53 14° ENE 12:28:49 10° NE
NOSS 2-3 (D) 3.6 12:23:35 10° SSW 12:27:48 78° ESE 12:32:31 10° NE
Cosmos 1666 Rocket 4.1 12:25:50 10° NNE 12:29:51 35° E 12:33:48 10° SE
COSMO-SKYMED 1 3.4 12:27:50 10° NE 12:31:42 31° E 12:35:33 10° SSE
USA 40 PKM 4.4 12:29:39 10° NW 12:34:29 88° SW 12:37:50 10° SE
Feng Yun 1-1 Rocket 4.3 12:30:49 10° SSE 12:36:27 90° E 12:41:58 10° NNW
CORIOLIS 4.1 12:33:09 10° SSE 12:38:32 74° ENE 12:43:57 10° N
Centaur D-1A AC-31 3.1 12:37:34 10° S 12:39:20 14° SSE 12:41:26 10° ESE
Cosmos 1238 Rocket 4.5 12:36:49 10° NNW 12:40:17 33° W 12:43:15 10° SSW
Cosmos 2219 4.1 12:36:52 10° NNW 12:42:19 54° WSW 12:47:46 10° S
Cosmos 1862 3.6 12:38:46 10° N 12:42:34 42° E 12:46:21 10° SSE
SL-16 R/B 3.8 12:41:57 10° SE 12:44:26 13° E 12:45:09 13° E
Cosmos 1980 Rocket 2.3 12:41:07 10° S 12:46:35 54° ESE 12:52:07 10° NNE
SeaSat 1 3.0 12:44:37 10° SE 12:49:05 36° ENE 12:53:35 10° N
YAOGAN 1 3.6 12:48:34 10° ESE 12:52:01 24° ENE 12:55:28 10° NNE
Cosmos 1606 4.0 12:49:40 10° SE 12:52:21 19° E 12:52:31 19° E
Cosmos 2322 Rocket 3.9 12:50:11 10° ESE 12:52:11 13° ESE 12:52:11 13° ESE
Envisat 2.9 12:51:36 10° SSE 12:56:36 64° ENE 13:01:38 10° N
Cosmos 2297 Rocket 2.7 12:51:49 10° NNW 12:57:25 63° WSW 13:02:58 10° S
Cosmos 2227 Rocket 2.6 12:52:13 10° NNW 12:57:50 68° WSW 13:03:25 10° S
Cosmos 1513 Rocket 4.5 12:53:32 10° N 12:59:58 81° E 13:06:16 10° S
Cosmos 1470 Rocket 4.1 12:56:57 10° NNE 13:01:04 35° ENE 13:05:09 10° SE
ATLAS 5 CENTAUR R/B 3.8 12:59:17 10° SSW 13:02:27 17° SSE 13:08:34 10° ESE
NOAA 12 4.2 13:01:43 10° S 13:07:02 82° WSW 13:12:24 10° NNW
Cosmos 2034 Rocket 4.0 13:02:16 10° N 13:08:38 68° E 13:14:57 10° SSE
Cosmos 2263 Rocket 3.7 13:11:58 10° NNE 13:14:16 17° NE 13:14:16 17° NE
FengYun 1-2 T 4.1 13:13:50 10° SSE 13:19:20 78° ENE 13:24:51 10° N
SKYMED 2 3.8 13:15:35 10° N 13:19:54 69° WNW 13:24:12 10° SSW
BREEZE-M DEB (TANK) 3.5 13:15:10 10° W 13:20:55 38° NNW 13:22:22 25° NNE
Cosmos 1371 Rocket 4.0 13:18:38 10° N 13:23:43 54° ENE 13:28:45 10° SSE
Cosmos 158 Rocket 4.0 13:19:03 10° SSW 13:24:23 83° WNW 13:29:34 10° NNE
ATLAS 5 CENTAUR R/B 3.7 13:18:52 10° NW 13:24:43 44° WSW 13:31:11 10° S
Okean-O 3.8 13:20:52 10° S 13:25:06 44° W 13:29:21 10° NNW
Cosmos 1697 Rocket 4.1 13:19:56 10° SW 13:25:07 36° WNW 13:30:18 10° N
Cosmos 1816 Rocket 4.5 13:20:42 10° S 13:27:02 89° E 13:33:26 10° N
Cosmos 1634 Rocket 4.3 13:21:21 10° N 13:27:04 38° ENE 13:32:45 10° SE
Cosmos 2082 4.2 13:22:24 10° NNW 13:27:56 62° WSW 13:33:28 10° S
Tsikada Rocket 4.0 13:22:30 10° S 13:28:52 87° E 13:35:19 10° N
Hubble Space Telescope 2.8 13:29:39 10° SSW 13:32:15 16° SSE 13:32:38 16° SSE
DELTA 2 R/B (1) 3.7 13:29:16 10° SW 13:34:46 62° SSE 13:36:26 43° E
BREEZE-M R/B 2.8 13:32:28 10° SW 13:38:15 63° SE 13:38:28 62° ESE
Cosmos 724 4.1 13:33:26 10° NNW 13:39:16 81° ENE 13:44:12 15° SSE
SL-8 R/B 3.9 13:41:07 10° WSW 13:45:54 64° NW 13:46:55 50° NNE
CZ-4 R/B 2.0 13:41:59 10° S 13:46:04 56° W 13:50:06 10° NNW
Cosmos 2228 Rocket 3.0 13:44:24 10° S 13:48:50 85° W 13:50:20 42° N
Meteor 1-26 Rocket 4.2 13:44:21 10° S 13:50:18 74° E 13:54:13 23° NNE
GPS 2-04 Rocket1 3.3 13:47:17 10° W 13:49:46 45° WSW 13:49:46 45° WSW
Cosmos 2227 4.4 13:52:48 10° NNW 13:57:38 53° NNE 13:57:38 53° NNE
NOAA 11 4.0 13:55:04 10° SSE 14:00:29 86° ENE 14:05:56 10° NNW
Cosmos 1933 Rocket 4.3 14:04:31 10° NNW 14:08:43 50° W 14:12:56 10° SSW
Cosmos 2056 Rocket 4.0 14:10:16 10° NNW 14:15:19 56° WSW 14:18:12 25° S
Meteor 1-25 Rocket 4.2 14:12:15 10° N 14:17:57 80° W 14:23:43 10° S
Meteor 1-20 Rocket 4.3 14:14:44 10° NNW 14:20:34 77° W 14:21:21 65° SSW
SL-16 R/B 2.5 14:22:10 10° SSW 14:27:05 63° WSW 14:27:05 63° WSW
Cosmos 1980 Rocket 4.5 14:26:52 10° WSW 14:30:55 20° NW 14:35:00 10° N
Cosmos 2322 Rocket 3.0 14:30:18 10° SSW 14:34:05 43° SW 14:34:05 43° SW
COSMOS 2455 3.9 14:34:57 10° SSW 14:38:22 36° SSW 14:38:22 36° SSW
ATLAS 2AS CENTAUR R/B 4.4 14:51:08 10° SSW 14:54:02 26° S 14:54:02 26° S
Cosmos 2263 Rocket 4.3 14:54:36 10° NNW 14:56:01 18° NW 14:56:01 18° NW
H-2A R/B 4.2 14:38:22 10° W 15:20:12 56° SSW 15:21:12 55° SSW
ATLAS CENTAUR R/B 4.4 22:30:15 17° ESE 22:30:15 17° ESE 22:33:07 10° ENE
Centaur D AC-28 3.2 23:07:12 45° S 23:07:23 45° S 23:19:30 10° ESE
Meteor 2-2 Rocket 4.3 23:14:21 70° SSE 23:14:21 70° SSE 23:19:21 10° S
SL-16 R/B 3.7 23:20:25 13° N 23:24:53 33° ENE 23:29:58 10° SE
Cosmos 1980 Rocket 2.4 23:28:11 56° SSW 23:28:11 56° SSW 23:32:49 10° S
Cosmos 2322 Rocket 3.7 23:27:35 10° N 23:32:39 33° ENE 23:37:43 10° SE
Cosmos 1408 4.5 23:33:17 10° SSE 23:36:34 31° E 23:39:50 10° NNE
CZ-3B R/B 3.3 23:35:41 21° SSW 23:38:31 28° S 23:42:35 10° ESE
Meteor PRIRODA 4.2 23:39:44 10° NNE 23:43:20 56° E 23:46:53 10° S
COSMOS 2455 3.4 23:40:20 18° NNW 23:44:48 55° ENE 23:50:40 10° SE
STARLINK-66 4.5 23:49:39 38° N 23:49:39 38° N 23:52:38 10° NE
PSLV R/B 4.5 23:45:19 10° NNE 23:49:10 55° E 23:53:05 10° S
ALOS 4.1 23:45:39 10° NE 23:49:49 31° E 23:53:57 10° SSE
Cosmos 1459 Rocket 3.9 23:43:53 10° S 23:50:02 88° E 23:56:21 10° N
STARLINK-41 4.4 23:51:09 37° N 23:51:09 37° N 23:54:11 10° NE
Cosmos 372 Rocket 4.2 23:46:43 10° S 23:51:51 69° ESE 23:56:58 10° NNE
STARLINK-64 4.5 23:52:49 37° N 23:52:49 37° N 23:55:51 10° NE
Cosmos 158 Rocket 3.7 23:51:11 51° NW 23:52:16 69° WSW 23:57:05 10° S
STARLINK-70 4.4 23:54:21 37° N 23:54:21 37° N 23:57:27 10° NE
STARLINK-68 4.5 23:56:09 35° N 23:56:09 35° N 23:59:14 10° NNE
